CZ-4B DEB, 48625

Orbit data source: Space-Track

CZ-4B DEB, 48625 is space debris in LEO originally from a launch on Wed, 19 May 2021 UTC launched from the Jiuquan Satellite Launch Center, China (JSC). Debris objects in space refer to the collection of defunct objects orbiting the Earth. Examples of debris include non-operational satellites, rocket bodies, and fragments generated from explosions, collisions, or faulty payload assembly.

Loading next visibility...
Identifier
48625, 2021-043E
Orbit
LEO
Country
Flag of CNCN / PRC
Related business
Manufacturer
SAST
Mission
Spacecraft
Bus & Motor
Unknown
Mass
Unknown
Launch date (UTC)
2021-05-19 (5 years ago)
Launch vehicle
Unknown
Launch site
Jiuquan Satellite Launch Center, China (JSC)
Object type
Payload
Rocket body
Debris
Shape & HBR
Unknown shape, 0.1 m
Radar Cross Section
Small (<0.1 m²)

Expand to show TLE details & history
Last TLE update: 6 days ago

TLE from 6 days ago
0 CZ-4B DEB
1 48625U 21043E   26167.52535468  .00001238  00000-0  92924-3 0  9998
2 48625  66.1670 267.3572 0049972 266.9485  92.5873 13.97421099258156
Epoch: 2026-06-16T12:36Z
TLE epoch observation values (Epoch: 2026-06-16T12:36:30.644Z)
Latitude
-0.00002°
Longitude
173.43337°
Altitude
906.597 km
Speed
7.398 km/s
True Right ascension
17h 49m 25s
True Declination
0° 00' 00"
Sunlit
Object was in full shadow at epoch
Visualization orbit readout
Latitude
Unknown
Longitude
Unknown
Altitude
Unknown
Speed
Unknown
Apparent Right ascension
Unknown
Apparent Declination
Unknown
Sunlit
N/A
Visualization observer readout
Local Sidereal Time
00:27:00
Azimuth
Unknown
Elevation
Unknown
Doppler factor
Unknown
Orbital elements
Apogee altitude
937.577 km
Perigee altitude
864.824 km
Semi-major axis
7,279.338 km
Eccentricity
0.005
Inclination
66.167°
RAAN
267.3572°
Arg. of periapsis
266.9485°
True anomaly
93.15918°
Mean anomaly
92.5873°
Eccentric anomaly
92.87326°
Mean motion
3.49466 °/min
Orbital period
103.01 mins
BSTAR
0.00092924
Loading maneuver chart data...
Computing Atmospheric mass density...
Loading historical data...
Loading historical data...
Loading historical data...
Loading historical data...
Loading historical data...
Loading historical data...
Loading historical data...
Other satellites on launch #43 in the year 2021 (2021-05-19 UTC)

Documentation

Showing up to 5 results
|